Location: Caltech
(34.1382°N, 118.1253°W)
Time: 11:08:56
(UTC-07:00)

Iridium 75 - Visible Passes

Search period start: 01 September 2015 00:00
Search period end: 11 September 2015 00:00
Orbit: 776 x 779 km, 86.4° (Epoch: 31 August)

Date Brightness Start Highest point End Pass type
(mag) Time Alt. Az. Time Alt. Az. Time Alt. Az.
01 Sep 8.6 22:10:57 10° NNE 22:10:58 10° NNE 22:10:58 10° NNE visible
02 Sep 8.8 23:17:25 10° NNW 23:18:00 13° NNW 23:18:00 13° NNW visible
03 Sep 8.6 22:43:49 10° N 22:44:34 14° N 22:44:34 14° N visible
04 Sep 8.5 22:10:36 10° NNE 22:11:08 13° NNE 22:11:08 13° NNE visible
05 Sep 8.9 23:17:44 10° NNW 23:18:11 12° NNW 23:18:11 12° NNW visible
06 Sep 8.6 22:43:53 10° N 22:44:46 15° N 22:44:46 15° N visible
07 Sep 8.4 22:10:26 10° N 22:11:21 15° N 22:11:21 15° N visible
08 Sep 8.3 21:37:24 10° NNE 21:37:58 13° NNE 21:37:58 13° NNE visible
08 Sep 9.0 23:18:15 10° NNW 23:18:26 11° NNW 23:18:26 11° NNW visible
09 Sep 8.6 22:44:06 10° NNW 22:45:03 15° NNW 22:45:03 15° NNW visible
10 Sep 8.3 22:10:24 10° N 22:11:40 18° N 22:11:40 18° N visible
